| time (UTC) | temp F | wind direction | speed MPH | gust MPH | rain 1hr in | rain 24hr in | rain mn in | humidity % | barometer mb |
| 20260904233601 | 74 | 338 | 4.0 | 6.0 | 0.00 | 0.00 | 0.00 | 63 | 1010.8 |
| 20260904232521 | 74 | 338 | 3.0 | 6.0 | 0.00 | 0.00 | 0.00 | 61 | 1010.7 |
| 20260904231524 | 74 | 338 | 4.0 | 7.0 | 0.00 | 0.00 | 0.00 | 61 | 1010.7 |
| 20260904230521 | 75 | 23 | 4.0 | 7.0 | 0.00 | 0.00 | 0.00 | 60 | 1010.7 |
| 20260904225522 | 75 | 23 | 4.0 | 6.0 | 0.00 | 0.00 | 0.00 | 59 | 1010.5 |
| 20260904224521 | 76 | 338 | 4.0 | 7.0 | 0.00 | 0.00 | 0.00 | 56 | 1010.6 |
| 20260904223521 | 76 | 338 | 6.0 | 11.0 | 0.00 | 0.00 | 0.00 | 57 | 1010.5 |
| 20260904222521 | 77 | 23 | 6.0 | 11.0 | 0.00 | 0.00 | 0.00 | 56 | 1010.3 |
| 20260904221541 | 77 | 338 | 6.0 | 13.0 | 0.00 | 0.00 | 0.00 | 55 | 1010.3 |
| 20260904220521 | 77 | 338 | 8.0 | 12.0 | 0.00 | 0.00 | 0.00 | 54 | 1010.4 |
| 20260904215521 | 77 | 338 | 7.0 | 14.0 | 0.00 | 0.00 | 0.00 | 55 | 1010.4 |
| 20260904214521 | 78 | 338 | 7.0 | 14.0 | 0.00 | 0.00 | 0.00 | 55 | 1010.6 |
| 20260904213521 | 78 | 23 | 4.0 | 7.0 | 0.00 | 0.00 | 0.00 | 56 | 1010.5 |
| 20260904212521 | 78 | 23 | 6.0 | 12.0 | 0.00 | 0.00 | 0.00 | 55 | 1010.4 |
| 20260904211521 | 78 | 338 | 7.0 | 12.0 | 0.00 | 0.00 | 0.00 | 56 | 1010.6 |
| 20260904210521 | 78 | 338 | 8.0 | 16.0 | 0.00 | 0.00 | 0.00 | 55 | 1010.6 |
| 20260904205541 | 78 | 338 | 6.0 | 12.0 | 0.00 | 0.00 | 0.00 | 55 | 1010.7 |
| 20260904204522 | 79 | 338 | 7.0 | 16.0 | 0.00 | 0.00 | 0.00 | 53 | 1010.7 |
| 20260904203521 | 79 | 338 | 9.0 | 17.0 | 0.00 | 0.00 | 0.00 | 51 | 1010.8 |
| 20260904202520 | 79 | 338 | 9.0 | 18.0 | 0.00 | 0.00 | 0.00 | 52 | 1010.9 |
| 20260904201521 | 79 | 338 | 6.0 | 12.0 | 0.00 | 0.00 | 0.00 | 53 | 1011.0 |
| 20260904200522 | 79 | 293 | 5.0 | 13.0 | 0.00 | 0.00 | 0.00 | 54 | 1011.0 |
| 20260904195541 | 80 | 293 | 7.0 | 16.0 | 0.00 | 0.00 | 0.00 | 51 | 1011.1 |
| 20260904194521 | 80 | 315 | 6.0 | 12.0 | 0.00 | 0.00 | 0.00 | 54 | 1011.1 |
| 20260904193600 | 79 | 293 | 5.0 | 10.0 | 0.00 | 0.00 | 0.00 | 53 | 1011.2 |
| 20260904192520 | 79 | 293 | 8.0 | 15.0 | 0.00 | 0.00 | 0.00 | 54 | 1011.4 |
| 20260904191520 | 79 | 338 | 7.0 | 13.0 | 0.00 | 0.00 | 0.00 | 53 | 1011.4 |
| 20260904190520 | 79 | 293 | 7.0 | 14.0 | 0.00 | 0.00 | 0.00 | 54 | 1011.4 |
| 20260904185520 | 79 | 293 | 7.0 | 13.0 | 0.00 | 0.00 | 0.00 | 54 | 1011.4 |
| 20260904184521 | 79 | 338 | 6.0 | 12.0 | 0.00 | 0.00 | 0.00 | 55 | 1011.5 |
| 20260904183520 | 79 | 293 | 7.0 | 13.0 | 0.00 | 0.00 | 0.00 | 55 | 1011.6 |
| 20260904182520 | 78 | 315 | 4.0 | 9.0 | 0.00 | 0.00 | 0.00 | 56 | 1011.5 |
| 20260904181540 | 78 | 338 | 6.0 | 12.0 | 0.00 | 0.00 | 0.00 | 54 | 1011.6 |
| 20260904180540 | 79 | 338 | 6.0 | 13.0 | 0.00 | 0.00 | 0.00 | 54 | 1011.6 |
| 20260904175520 | 80 | 293 | 6.0 | 13.0 | 0.00 | 0.00 | 0.00 | 53 | 1011.8 |
| 20260904174520 | 80 | 293 | 6.0 | 11.0 | 0.00 | 0.00 | 0.00 | 52 | 1011.8 |
| 20260904173620 | 79 | 293 | 6.0 | 12.0 | 0.00 | 0.00 | 0.00 | 54 | 1011.8 |
| 20260904172520 | 78 | 293 | 5.0 | 11.0 | 0.00 | 0.00 | 0.00 | 56 | 1011.8 |
| 20260904171600 | 80 | 293 | 5.0 | 9.0 | 0.00 | 0.00 | 0.00 | 53 | 1011.9 |
| 20260904170540 | 78 | 338 | 8.0 | 12.0 | 0.00 | 0.00 | 0.00 | 57 | 1011.9 |
| 20260904165520 | 78 | 338 | 8.0 | 15.0 | 0.00 | 0.00 | 0.00 | 54 | 1012.1 |
| 20260904164520 | 77 | 338 | 9.0 | 15.0 | 0.00 | 0.00 | 0.00 | 58 | 1012.0 |
| 20260904163520 | 77 | 338 | 7.0 | 14.0 | 0.00 | 0.00 | 0.00 | 58 | 1011.9 |
| 20260904162520 | 78 | 338 | 7.0 | 14.0 | 0.00 | 0.00 | 0.00 | 59 | 1012.0 |
| 20260904161520 | 77 | 315 | 5.0 | 10.0 | 0.00 | 0.00 | 0.00 | 62 | 1012.1 |
| 20260904160519 | 77 | 338 | 5.0 | 11.0 | 0.00 | 0.00 | 0.00 | 61 | 1011.9 |
| 20260904155522 | 77 | 338 | 8.0 | 13.0 | 0.00 | 0.00 | 0.00 | 61 | 1012.0 |
| 20260904154522 | 78 | 315 | 5.0 | 12.0 | 0.00 | 0.00 | 0.00 | 60 | 1012.0 |
| 20260904153522 | 78 | 338 | 6.0 | 12.0 | 0.00 | 0.00 | 0.00 | 60 | 1011.9 |
| 20260904152521 | 76 | 23 | 4.0 | 9.0 | 0.00 | 0.00 | 0.00 | 64 | 1012.0 |
| 20260904151521 | 77 | 338 | 4.0 | 11.0 | 0.00 | 0.00 | 0.00 | 62 | 1012.0 |
| 20260904150521 | 77 | 338 | 3.0 | 7.0 | 0.00 | 0.00 | 0.00 | 64 | 1012.0 |
| 20260904145523 | 77 | 315 | 3.0 | 6.0 | 0.00 | 0.00 | 0.00 | 65 | 1012.1 |
| 20260904144521 | 76 | 293 | 3.0 | 6.0 | 0.00 | 0.00 | 0.00 | 66 | 1012.1 |
| 20260904143521 | 76 | 338 | 4.0 | 7.0 | 0.00 | 0.00 | 0.00 | 68 | 1012.1 |
| 20260904142521 | 76 | 248 | 3.0 | 6.0 | 0.00 | 0.00 | 0.00 | 71 | 1012.0 |
| 20260904141642 | 75 | 293 | 2.0 | 5.0 | 0.00 | 0.00 | 0.00 | 73 | 1012.1 |
| 20260904140543 | 73 | 338 | 1.0 | 3.0 | 0.00 | 0.00 | 0.00 | 77 | 1012.2 |
| 20260904135521 | 74 | 23 | 3.0 | 6.0 | 0.00 | 0.00 | 0.00 | 76 | 1012.0 |
| 20260904134521 | 73 | 23 | 3.0 | 7.0 | 0.00 | 0.00 | 0.00 | 78 | 1012.2 |
| 20260904133521 | 73 | 293 | 4.0 | 9.0 | 0.00 | 0.00 | 0.00 | 78 | 1012.4 |
| 20260904132521 | 72 | 293 | 3.0 | 9.0 | 0.00 | 0.00 | 0.00 | 80 | 1012.3 |
| 20260904131521 | 72 | 270 | 2.0 | 6.0 | 0.00 | 0.00 | 0.00 | 80 | 1012.2 |
| 20260904130521 | 72 | 293 | 2.0 | 5.0 | 0.00 | 0.00 | 0.00 | 81 | 1012.1 |
| 20260904125521 | 71 | 293 | 3.0 | 5.0 | 0.00 | 0.00 | 0.00 | 81 | 1011.9 |
| 20260904124521 | 71 | 23 | 2.0 | 5.0 | 0.00 | 0.00 | 0.00 | 81 | 1012.1 |
| 20260904123521 | 71 | 293 | 3.0 | 6.0 | 0.00 | 0.00 | 0.00 | 81 | 1012.1 |
| 20260904122541 | 71 | 270 | 1.0 | 4.0 | 0.00 | 0.00 | 0.00 | 81 | 1012.3 |
| 20260904121521 | 71 | 315 | 2.0 | 5.0 | 0.00 | 0.00 | 0.00 | 81 | 1012.2 |
| 20260904120521 | 70 | 293 | 1.0 | 4.0 | 0.00 | 0.00 | 0.00 | 82 | 1012.2 |
| 20260904115521 | 70 | 293 | 2.0 | 5.0 | 0.00 | 0.00 | 0.00 | 82 | 1012.1 |
| 20260904114521 | 70 | 293 | 2.0 | 5.0 | 0.00 | 0.00 | 0.00 | 82 | 1012.0 |
| 20260904113523 | 70 | 248 | 1.0 | 3.0 | 0.00 | 0.00 | 0.00 | 83 | 1012.0 |
| 20260904112522 | 69 | 293 | 2.0 | 5.0 | 0.00 | 0.00 | 0.00 | 83 | 1011.9 |
| 20260904111520 | 69 | 248 | 2.0 | 5.0 | 0.00 | 0.00 | 0.00 | 83 | 1011.9 |
| 20260904110541 | 69 | 293 | 1.0 | 3.0 | 0.00 | 0.00 | 0.00 | 83 | 1011.8 |
| 20260904105521 | 69 | 248 | 2.0 | 6.0 | 0.00 | 0.00 | 0.00 | 84 | 1011.5 |
| 20260904104522 | 69 | 270 | 1.0 | 2.0 | 0.00 | 0.00 | 0.00 | 83 | 1011.6 |
| 20260904103520 | 69 | 248 | 1.0 | 3.0 | 0.00 | 0.00 | 0.00 | 84 | 1011.7 |
| 20260904102520 | 69 | 248 | 1.0 | 3.0 | 0.00 | 0.00 | 0.00 | 85 | 1011.6 |
| 20260904101540 | 69 | 248 | 1.0 | 2.0 | 0.00 | 0.00 | 0.00 | 84 | 1011.3 |
| 20260904100520 | 69 | 270 | 1.0 | 3.0 | 0.00 | 0.00 | 0.00 | 83 | 1011.2 |
| 20260904095522 | 69 | 270 | 1.0 | 3.0 | 0.00 | 0.00 | 0.00 | 83 | 1011.2 |
| 20260904094520 | 69 | 270 | 1.0 | 2.0 | 0.00 | 0.00 | 0.00 | 83 | 1011.0 |
| 20260904093541 | 70 | 0.0 | 3.0 | 0.00 | 0.00 | 0.00 | 83 | 1011.1 | |
| 20260904092520 | 70 | 270 | 2.0 | 5.0 | 0.00 | 0.00 | 0.00 | 83 | 1011.0 |
| 20260904091520 | 70 | 270 | 3.0 | 6.0 | 0.00 | 0.00 | 0.00 | 83 | 1011.0 |
| 20260904090520 | 71 | 270 | 3.0 | 6.0 | 0.00 | 0.00 | 0.00 | 83 | 1010.9 |
| 20260904085520 | 71 | 293 | 1.0 | 5.0 | 0.00 | 0.00 | 0.00 | 83 | 1010.7 |
| 20260904084521 | 71 | 293 | 2.0 | 4.0 | 0.00 | 0.00 | 0.00 | 83 | 1010.7 |
| 20260904083520 | 71 | 293 | 2.0 | 5.0 | 0.00 | 0.00 | 0.00 | 83 | 1010.5 |
| 20260904082520 | 71 | 293 | 2.0 | 6.0 | 0.00 | 0.00 | 0.00 | 84 | 1010.6 |
| 20260904081520 | 71 | 293 | 1.0 | 4.0 | 0.00 | 0.00 | 0.00 | 84 | 1010.4 |
| 20260904080540 | 72 | 293 | 2.0 | 6.0 | 0.00 | 0.00 | 0.00 | 84 | 1010.4 |
| 20260904075521 | 71 | 293 | 2.0 | 5.0 | 0.00 | 0.00 | 0.00 | 84 | 1010.3 |
| 20260904074540 | 71 | 293 | 1.0 | 4.0 | 0.00 | 0.00 | 0.00 | 84 | 1010.2 |
| 20260904073520 | 71 | 293 | 2.0 | 4.0 | 0.00 | 0.00 | 0.00 | 86 | 1010.1 |
| 20260904072522 | 71 | 293 | 2.0 | 4.0 | 0.00 | 0.00 | 0.00 | 88 | 1010.0 |
| 20260904071520 | 70 | 0.0 | 1.0 | 0.00 | 0.00 | 0.00 | 90 | 1010.0 | |
| 20260904070520 | 70 | 0.0 | 1.0 | 0.00 | 0.00 | 0.00 | 90 | 1010.1 | |
| 20260904065520 | 70 | 0.0 | 2.0 | 0.00 | 0.00 | 0.00 | 90 | 1010.0 | |
| 20260904064520 | 70 | 0.0 | 0.0 | 0.00 | 0.00 | 0.00 | 90 | 1010.0 | |
| 20260904063520 | 70 | 0.0 | 0.0 | 0.00 | 0.00 | 0.00 | 90 | 1010.1 | |
| 20260904062522 | 70 | 0.0 | 0.0 | 0.00 | 0.00 | 0.00 | 90 | 1010.2 | |
| 20260904061541 | 70 | 0.0 | 1.0 | 0.00 | 0.00 | 0.00 | 90 | 1010.2 | |
| 20260904060521 | 70 | 0.0 | 0.0 | 0.00 | 0.00 | 0.00 | 90 | 1010.4 | |
| 20260904055521 | 70 | 0.0 | 1.0 | 0.00 | 0.00 | 0.00 | 90 | 1010.5 | |
| 20260904054521 | 70 | 0.0 | 0.0 | 0.00 | 0.00 | 0.00 | 90 | 1010.4 | |
| 20260904053521 | 70 | 0.0 | 0.0 | 0.00 | 0.00 | 0.00 | 90 | 1010.5 | |
| 20260904052524 | 70 | 0.0 | 2.0 | 0.00 | 0.00 | 0.00 | 90 | 1010.6 | |
| 20260904051522 | 70 | 158 | 1.0 | 3.0 | 0.00 | 0.00 | 0.00 | 89 | 1010.7 |
| 20260904050521 | 70 | 180 | 1.0 | 2.0 | 0.00 | 0.00 | 0.00 | 89 | 1010.7 |
| 20260904045521 | 70 | 158 | 2.0 | 4.0 | 0.00 | 0.00 | 0.00 | 89 | 1010.8 |
| 20260904044521 | 70 | 180 | 2.0 | 4.0 | 0.00 | 0.00 | 0.00 | 89 | 1010.7 |
| 20260904043521 | 71 | 180 | 3.0 | 5.0 | 0.00 | 0.00 | 0.00 | 88 | 1010.7 |
| 20260904042521 | 71 | 180 | 1.0 | 4.0 | 0.00 | 0.00 | 0.00 | 88 | 1010.7 |
| 20260904041541 | 71 | 0.0 | 2.0 | 0.00 | 0.00 | 0.00 | 87 | 1010.6 | |
| 20260904040541 | 71 | 0.0 | 0.0 | 0.00 | 0.00 | 0.00 | 87 | 1010.4 | |
| 20260904035521 | 71 | 0.0 | 2.0 | 0.00 | 0.00 | 0.00 | 87 | 1010.6 | |
| 20260904034521 | 71 | 158 | 1.0 | 2.0 | 0.00 | 0.00 | 0.00 | 86 | 1010.5 |
| 20260904033521 | 72 | 203 | 1.0 | 2.0 | 0.00 | 0.00 | 0.00 | 86 | 1010.5 |
| 20260904032521 | 72 | 180 | 2.0 | 4.0 | 0.00 | 0.00 | 0.00 | 85 | 1010.4 |
| 20260904031541 | 72 | 180 | 1.0 | 4.0 | 0.00 | 0.00 | 0.00 | 84 | 1010.6 |
| 20260904030522 | 72 | 0.0 | 2.0 | 0.00 | 0.00 | 0.00 | 84 | 1010.7 | |
| 20260904025521 | 72 | 180 | 1.0 | 3.0 | 0.00 | 0.00 | 0.00 | 83 | 1010.7 |
| 20260904024521 | 73 | 203 | 3.0 | 5.0 | 0.00 | 0.00 | 0.00 | 84 | 1010.7 |
| 20260904023521 | 73 | 180 | 2.0 | 3.0 | 0.00 | 0.02 | 0.00 | 83 | 1010.7 |
| 20260904022521 | 73 | 158 | 2.0 | 3.0 | 0.00 | 0.02 | 0.00 | 81 | 1010.9 |
| 20260904021521 | 74 | 158 | 2.0 | 3.0 | 0.00 | 0.03 | 0.00 | 79 | 1010.6 |
| 20260904020521 | 74 | 0.0 | 1.0 | 0.00 | 0.03 | 0.00 | 78 | 1010.8 | |
| 20260904015521 | 75 | 180 | 1.0 | 2.0 | 0.00 | 0.03 | 0.00 | 77 | 1010.9 |
| 20260904014521 | 75 | 0.0 | 1.0 | 0.00 | 0.05 | 0.00 | 75 | 1010.9 | |
| 20260904013521 | 76 | 0.0 | 2.0 | 0.00 | 0.05 | 0.00 | 73 | 1011.0 | |
| 20260904012522 | 77 | 0.0 | 1.0 | 0.00 | 0.05 | 0.00 | 70 | 1010.5 | |
| 20260904011541 | 77 | 23 | 1.0 | 2.0 | 0.00 | 0.06 | 0.00 | 69 | 1010.7 |
| 20260904010521 | 77 | 0.0 | 0.0 | 0.00 | 0.09 | 0.00 | 69 | 1010.9 | |
| 20260904005520 | 77 | 0.0 | 0.0 | 0.00 | 0.11 | 0.00 | 68 | 1010.7 | |
| 20260904004521 | 78 | 0.0 | 2.0 | 0.00 | 0.12 | 0.00 | 67 | 1010.9 | |
| 20260904003521 | 78 | 0 | 1.0 | 2.0 | 0.00 | 0.12 | 0.00 | 66 | 1010.8 |
| 20260904002521 | 78 | 0 | 1.0 | 2.0 | 0.00 | 0.12 | 0.00 | 66 | 1010.8 |
| 20260904001540 | 78 | 0 | 2.0 | 3.0 | 0.00 | 0.12 | 0.00 | 66 | 1010.6 |
| 20260904000520 | 78 | 338 | 1.0 | 3.0 | 0.00 | 0.12 | 0.00 | 67 | 1010.6 |
| 20260903235520 | 79 | 0.0 | 2.0 | 0.00 | 0.12 | 0.00 | 68 | 1010.6 | |
| 20260903234541 | 79 | 338 | 2.0 | 4.0 | 0.00 | 0.12 | 0.00 | 65 | 1010.4 |